Terminal Aerodrome Forecast
Issued by NWS Wilmington, OH

Home | Current Version | Previous Version | Text Only | Print | Product List | Glossary On
Versions: 1 2 3 4 5 6 7 8 9 10 11 12 13 14 15 16
000
FTUS41 KILN 060500
TAFCMH
TAF
KCMH 060520Z 0606/0706 35003KT P6SM SCT140 OVC200
     FM061300 24007KT P6SM SCT040 BKN250
     FM070000 18005KT P6SM SCT250=

USA.gov is the U.S. government's official web portal to all federal, state and local government web resources and services.